EW1423 Weather Reports


Display with metric or nautical units.
time (UTC)temp
F
wind
direction
speed
MPH
gust
MPH
rain 1hr
in
rain 24hr
in
rain mn
in
humidity
%
barometer
mb
20260505024803 53 304 0.0 0.0 0.00 0.00 0.00 91 1010.6
20260505023804 53 304 0.0 0.0 0.00 0.00 0.00 90 1010.6
20260505022304 54 304 0.0 0.0 0.00 0.00 0.00 88 1010.8
20260505021803 54 304 0.0 1.0 0.00 0.00 0.00 87 1010.9
20260505021304 55 304 0.0 1.0 0.00 0.00 0.00 87 1010.9
20260505020804 55 304 0.0 0.0 0.00 0.00 0.00 86 1011.3
20260505020303 56 304 0.0 0.0 0.00 0.00 0.00 86 1011.3
20260505015803 56 304 0.0 1.0 0.00 0.00 0.00 85 1011.3
20260505015304 56 304 0.0 0.0 0.00 0.00 0.00 85 1011.3
20260505014803 56 304 0.0 1.0 0.00 0.00 0.00 85 1011.3
20260505014303 56 304 0.0 1.0 0.00 0.00 0.00 85 1011.3
20260505013804 56 304 0.0 1.0 0.00 0.00 0.00 85 1011.3
20260505013303 56 304 0.0 1.0 0.00 0.00 0.00 85 1011.5
20260505012304 56 304 0.0 0.0 0.00 0.00 0.00 85 1011.5
20260505011804 56 304 0.0 0.0 0.00 0.00 0.00 84 1011.5
20260505011303 56 304 0.0 0.0 0.00 0.00 0.00 83 1011.5
20260505010804 57 304 0.0 0.0 0.00 0.00 0.00 83 1011.5
20260505010303 57 304 0.0 0.0 0.00 0.00 0.00 83 1011.5
20260505005304 57 304 0.0 1.0 0.00 0.00 0.00 83 1011.6
20260505004803 57 304 0.0 1.0 0.00 0.00 0.00 83 1011.7
20260505004304 57 304 0.0 0.0 0.00 0.00 0.00 82 1011.7
20260505003803 57 304 0.0 0.0 0.00 0.00 0.00 82 1011.7
20260505003304 57 304 0.0 0.0 0.00 0.00 0.00 81 1011.7
20260505002803 58 304 0.0 1.0 0.00 0.00 0.00 81 1011.7
20260505002304 58 304 0.0 0.0 0.00 0.00 0.00 80 1011.9
20260505001803 58 304 0.0 0.0 0.00 0.00 0.00 80 1011.9
20260505001303 58 304 0.0 0.0 0.00 0.00 0.00 80 1011.9
20260505000804 58 304 0.0 0.0 0.00 0.00 0.00 80 1011.9
20260505000303 58 304 0.0 0.0 0.00 0.00 0.00 80 1011.9
20260504235803 58 304 0.0 3.0 0.00 0.00 0.00 80 1011.9
20260504235305 58 298 0.0 1.0 0.00 0.00 0.00 80 1011.9
20260504234803 57 298 0.0 1.0 0.00 0.00 0.00 81 1011.9
20260504234303 57 298 0.0 1.0 0.00 0.00 0.00 82 1011.9
20260504233804 57 298 0.0 1.0 0.00 0.00 0.00 81 1011.9
20260504232804 57 298 0.0 1.0 0.00 0.00 0.00 81 1012.0
20260504232304 57 298 0.0 0.0 0.00 0.00 0.00 81 1012.2
20260504231803 57 298 0.0 0.0 0.00 0.00 0.00 81 1012.2
20260504231305 58 298 0.0 0.0 0.00 0.00 0.00 80 1012.2
20260504230803 58 298 0.0 0.0 0.00 0.00 0.00 80 1012.2
20260504230304 58 298 0.0 0.0 0.00 0.00 0.00 79 1012.2
20260504225304 58 298 0.0 0.0 0.00 0.00 0.00 79 1012.3
20260504224804 58 298 0.0 0.0 0.00 0.00 0.00 78 1012.3
20260504224304 58 298 0.0 1.0 0.00 0.00 0.00 79 1012.3
20260504223804 58 298 0.0 0.0 0.00 0.00 0.00 78 1012.4
20260504223304 58 298 0.0 0.0 0.00 0.00 0.00 78 1012.4
20260504222803 59 298 0.0 1.0 0.00 0.00 0.00 77 1012.4
20260504222305 59 298 0.0 0.0 0.00 0.00 0.00 77 1012.4
20260504221804 59 298 0.0 1.0 0.00 0.00 0.00 77 1012.4
20260504221304 59 298 0.0 0.0 0.00 0.00 0.00 77 1012.5
20260504220810 59 298 0.0 0.0 0.00 0.00 0.00 77 1012.5
20260504220303 59 298 0.0 0.0 0.00 0.00 0.00 75 1012.5
20260504215804 60 298 0.0 0.0 0.00 0.00 0.00 75 1012.5
20260504215304 60 298 0.0 0.0 0.00 0.00 0.00 74 1012.5
20260504214303 60 298 0.0 0.0 0.00 0.00 0.00 73 1012.5
20260504213804 60 298 0.0 2.0 0.00 0.00 0.00 73 1012.5
20260504213304 60 297 0.0 0.0 0.00 0.00 0.00 74 1012.5
20260504212803 60 297 0.0 0.0 0.00 0.00 0.00 73 1012.5
20260504212304 60 297 0.0 1.0 0.00 0.00 0.00 72 1012.5
20260504211804 60 297 0.0 0.0 0.00 0.00 0.00 73 1012.5
20260504211304 60 297 0.0 0.0 0.00 0.00 0.00 71 1012.5
20260504210803 60 297 0.0 0.0 0.00 0.00 0.00 72 1012.4
20260504210304 61 297 0.0 0.0 0.00 0.00 0.00 72 1012.4
20260504205803 61 297 0.0 0.0 0.00 0.00 0.00 71 1012.5
20260504205304 61 297 0.0 0.0 0.00 0.00 0.00 70 1012.5
20260504204303 61 297 0.0 0.0 0.00 0.00 0.00 69 1012.6
20260504203803 62 297 0.0 1.0 0.00 0.00 0.00 68 1012.6
20260504203304 62 297 0.0 0.0 0.00 0.00 0.00 68 1012.7
20260504202804 62 297 0.0 1.0 0.00 0.00 0.00 68 1012.7
20260504202305 62 297 0.0 0.0 0.00 0.00 0.00 68 1012.7
20260504201803 62 297 0.0 1.0 0.00 0.00 0.00 68 1012.7
20260504201303 63 297 0.0 2.0 0.00 0.00 0.00 67 1012.9
20260504200803 63 297 0.0 2.0 0.00 0.00 0.00 66 1012.9
20260504200304 63 297 0.0 2.0 0.00 0.00 0.00 66 1012.9
20260504195804 63 297 0.0 2.0 0.00 0.00 0.00 66 1012.9
20260504195304 63 297 1.0 3.0 0.00 0.00 0.00 65 1012.6
20260504194803 63 286 0.0 2.0 0.00 0.00 0.00 66 1012.5
20260504194304 63 286 0.0 2.0 0.00 0.00 0.00 66 1012.5
20260504193304 64 267 0.0 2.0 0.00 0.00 0.00 64 1012.7
20260504192804 64 263 1.0 3.0 0.00 0.00 0.00 63 1012.7
20260504192304 64 276 1.0 5.0 0.00 0.00 0.00 62 1012.6
20260504191804 64 315 1.0 3.0 0.00 0.00 0.00 61 1012.6
20260504191304 64 286 1.0 3.0 0.00 0.00 0.00 60 1012.6
20260504190804 65 5 1.0 2.0 0.00 0.00 0.00 59 1012.6
20260504190303 65 300 1.0 3.0 0.00 0.00 0.00 59 1012.5
20260504185803 65 301 1.0 5.0 0.00 0.00 0.00 58 1012.4
20260504185304 65 302 1.0 5.0 0.00 0.00 0.00 57 1012.4
20260504184804 65 303 1.0 5.0 0.00 0.00 0.00 56 1012.5
20260504184304 66 304 0.0 3.0 0.00 0.00 0.00 56 1012.4
20260504183803 66 300 1.0 3.0 0.00 0.00 0.00 56 1012.3
20260504183303 66 329 1.0 5.0 0.00 0.00 0.00 56 1012.3
20260504182804 66 296 1.0 5.0 0.00 0.00 0.00 56 1012.3
20260504182304 66 313 1.0 3.0 0.00 0.00 0.00 56 1012.3
20260504181804 66 306 1.0 3.0 0.00 0.00 0.00 56 1012.1
20260504181304 67 355 1.0 3.0 0.00 0.00 0.00 55 1012.1
20260504180804 67 281 2.0 5.0 0.00 0.00 0.00 54 1012.1
20260504180304 67 298 2.0 9.0 0.00 0.00 0.00 54 1012.1
20260504175803 68 317 1.0 3.0 0.00 0.00 0.00 54 1012.1
20260504175304 68 313 2.0 7.0 0.00 0.00 0.00 54 1012.0
20260504174804 68 315 2.0 7.0 0.00 0.00 0.00 54 1012.0
20260504174303 68 291 2.0 6.0 0.00 0.00 0.00 54 1011.8
20260504173803 68 293 2.0 7.0 0.00 0.00 0.00 53 1011.8
20260504173304 68 293 1.0 5.0 0.00 0.00 0.00 54 1011.8
20260504172805 68 343 2.0 5.0 0.00 0.00 0.00 54 1011.8
20260504171304 69 295 2.0 5.0 0.00 0.00 0.00 54 1011.8
20260504170804 69 315 1.0 5.0 0.00 0.00 0.00 54 1011.8
20260504170304 69 287 3.0 8.0 0.00 0.00 0.00 52 1011.8
20260504160303 72 277 2.0 5.0 0.00 0.00 0.00 48 1011.8
20260504141304 78 314 2.0 5.0 0.00 0.00 0.00 40 1012.1
20260504140803 77 32 2.0 7.0 0.00 0.00 0.00 41 1012.1
20260504140304 77 30 1.0 5.0 0.00 0.00 0.00 40 1012.5
20260504130804 75 38 3.0 7.0 0.00 0.00 0.00 44 1012.8
20260504130303 76 2 2.0 6.0 0.00 0.00 0.00 40 1012.8
20260504120304 72 312 1.0 2.0 0.00 0.00 0.00 46 1013.6
20260504110303 72 278 0.0 3.0 0.00 0.00 0.00 50 1013.7
20260504100303 72 97 1.0 3.0 0.00 0.00 0.00 48 1014.2
20260504081804 66 71 1.0 3.0 0.00 0.00 0.00 61 1015.0
20260504081303 65 88 1.0 3.0 0.00 0.00 0.00 63 1015.0
20260504050303 49 74 0.0 0.0 0.00 0.00 0.00 89 1015.0
20260504045804 49 74 0.0 0.0 0.00 0.00 0.00 89 1015.0
20260504045304 48 74 0.0 0.0 0.00 0.00 0.00 89 1015.0
20260504044804 48 74 0.0 0.0 0.00 0.00 0.00 89 1015.0
20260504044304 48 74 0.0 0.0 0.00 0.00 0.00 89 1015.0
20260504043803 48 74 0.0 0.0 0.00 0.00 0.00 89 1015.0
20260504043303 48 74 0.0 0.0 0.00 0.00 0.00 90 1015.0
20260504042803 48 74 0.0 0.0 0.00 0.00 0.00 89 1015.0
20260504042304 48 74 0.0 0.0 0.00 0.00 0.00 89 1015.0
20260504041803 49 74 0.0 0.0 0.00 0.00 0.00 89 1015.0
20260504041304 49 74 0.0 0.0 0.00 0.00 0.00 88 1015.0
20260504040803 49 74 0.0 0.0 0.00 0.00 0.00 88 1015.0
20260504035803 49 74 0.0 0.0 0.00 0.00 0.00 87 1015.0
20260504035305 50 74 0.0 0.0 0.00 0.00 0.00 86 1015.0
20260504034804 50 74 0.0 0.0 0.00 0.00 0.00 85 1015.0
20260504033805 50 74 0.0 0.0 0.00 0.00 0.00 85 1015.0
20260504033303 51 74 0.0 0.0 0.00 0.00 0.00 85 1015.0
20260504032803 51 74 0.0 0.0 0.00 0.00 0.00 84 1015.0
20260504032304 51 74 0.0 0.0 0.00 0.00 0.00 84 1015.0
20260504031804 51 74 0.0 0.0 0.00 0.00 0.00 83 1015.0
20260504030803 52 74 0.0 0.0 0.00 0.00 0.00 83 1015.0
20260504030304 52 74 0.0 0.0 0.00 0.00 0.00 83 1015.0
20260504025804 52 74 0.0 0.0 0.00 0.00 0.00 83 1015.0
20260504025304 52 74 0.0 0.0 0.00 0.00 0.00 82 1015.0